Torna al catalogo

STARLINK-3175

AttivoComunicazioniVLEO
NORAD 51140·PAYLOAD·🇺🇸 United States

Lanciato Jan 19, 2022 da Cape Canaveral Space Force Station

Loading…

Prossimi Passaggi (prossime 24 ore)

TLE

AggiornatoSource: CelesTrak SupGP

Epoca: Sep 14, 2026, 20:31 UTC

1 51140C 22005AN  26257.85534722 -.00031614  00000+0 -10167-2 0  2578
2 51140  53.1587 156.0693 0001469  92.6167 329.8007 15.31716464    11

Traccia STARLINK-3175 in tempo reale con AllMySat

Download on the App Store